Amargosa Valley, NV

10:50 PM PST on December 02, 2016 (GMT -0800)
Mercury

Weather History for KDRA - August, 2013

Change the Weather History Date:

Sunday, August 25, 2013

  Actual Average Record
Temperature  
Mean Temperature 80 °F 82 °F  
Max Temperature 93 °F 96 °F 107 °F (1985)
Min Temperature 66 °F 67 °F 55 °F (1989)
Degree Days  
Heating Degree Days 0    
Cooling Degree Days 14    
Growing Degree Days 30 (Base 50)    
Moisture  
Dew Point 52 °F    
Average Humidity 39    
Maximum Humidity 56    
Minimum Humidity 21    
Precipitation  
Precipitation 0.00 in 0.02 in 0.05 in (1991)
Month to date precipitation 0.55  
Year to date precipitation 3.86  
Sea Level Pressure  
Sea Level Pressure 29.87 in    
Wind  
Wind Speed 8 mph (ESE)    
Max Wind Speed 26 mph    
Max Gust Speed 31 mph    
Visibility 10 miles    
Events      
T = Trace of Precipitation, MM = Missing Value Source: NWS Daily Summary

Daily Weather History Graph

Daily Weather History Graph

Search for Another Location

Airport or City:

Trip Planner

Search our weather history database for the weather conditions in past years. The results will help you decide how hot, cold, wet, or windy it might be!

Date:

Astronomy

Aug. 25, 2013 Rise Set
Actual Time 6:09 AM PDT 7:21 PM PDT
Civil Twilight 5:43 AM PDT 7:48 PM PDT
Nautical Twilight 5:11 AM PDT 8:20 PM PDT
Astronomical Twilight 4:37 AM PDT 8:53 PM PDT
Moon 10:05 PM PDT (8/25) 11:06 AM PDT (8/25)
Length of Visible Light 14h 05m
Length of Day
13h 11m
Waning Gibbous, 75% of the Moon is Illuminated
Aug 25
Waning Gibbous
Aug 28
Last Quarter
Sep 5
New
Sep 12
First Quarter
Sep 19
Full

Hourly Weather History & Observations

Time (PDT) Temp. Heat Index Dew Point Humidity Pressure Visibility Wind Dir Wind Speed Gust Speed Precip Events Conditions
12:52 AM 77.0 °F - 53.1 °F 43% 29.82 in 10.0 mi Calm Calm - N/A   Clear
1:52 AM 73.9 °F - 52.0 °F 46% 29.82 in 10.0 mi NNE 4.6 mph - N/A   Clear
2:52 AM 70.0 °F - 52.0 °F 53% 29.83 in 10.0 mi ESE 4.6 mph - N/A   Clear
3:52 AM 70.0 °F - 52.0 °F 53% 29.85 in 10.0 mi ESE 6.9 mph - N/A   Clear
4:52 AM 71.1 °F - 52.0 °F 51% 29.87 in 10.0 mi East 5.8 mph - N/A   Clear
5:52 AM 68.0 °F - 52.0 °F 56% 29.88 in 10.0 mi North 4.6 mph - N/A   Clear
6:52 AM 70.0 °F - 52.0 °F 53% 29.90 in 10.0 mi Calm Calm - N/A   Clear
7:52 AM 75.0 °F - 52.0 °F 44% 29.90 in 10.0 mi Calm Calm - N/A   Clear
8:52 AM 79.0 °F - 54.0 °F 42% 29.90 in 10.0 mi ESE 10.4 mph - N/A   Partly Cloudy
9:52 AM 82.9 °F - 52.0 °F 34% 29.89 in 10.0 mi SSE 4.6 mph - N/A   Scattered Clouds
10:52 AM 86.0 °F - 52.0 °F 31% 29.88 in 10.0 mi South 8.1 mph - N/A   Clear
11:52 AM 87.8 °F - 50.0 °F 27% 30.01 in 10.0 mi Variable 3.5 mph - N/A   Clear
12:52 PM 90.0 °F - 51.1 °F 26% 29.84 in 10.0 mi SSW 17.3 mph 26.5 mph N/A   Partly Cloudy
1:52 PM 91.9 °F - 48.9 °F 23% 29.83 in 10.0 mi SW 15.0 mph 28.8 mph N/A   Partly Cloudy
2:52 PM 93.0 °F - 48.9 °F 22% 29.81 in 10.0 mi SW 17.3 mph 27.6 mph N/A   Partly Cloudy
3:52 PM 88.0 °F 86.5 °F 55.9 °F 34% 29.80 in 10.0 mi East 19.6 mph 25.3 mph N/A   Scattered Clouds
4:02 PM 87.8 °F 86.1 °F 55.4 °F 33% 29.94 in 10.0 mi East 15.0 mph 29.9 mph N/A   Partly Cloudy
4:52 PM 81.0 °F 80.4 °F 53.1 °F 38% 29.82 in 10.0 mi East 26.5 mph 31.1 mph N/A   Partly Cloudy
5:52 PM 82.0 °F - 52.0 °F 35% 29.83 in 10.0 mi East 25.3 mph - N/A   Clear
6:52 PM 79.0 °F - 54.0 °F 42% 29.83 in 10.0 mi East 20.7 mph 27.6 mph N/A   Clear
7:52 PM 78.1 °F - 53.1 °F 42% 29.86 in 10.0 mi East 13.8 mph 24.2 mph N/A   Clear
8:52 PM 78.1 °F - 48.9 °F 36% 29.88 in 10.0 mi East 16.1 mph 23.0 mph N/A   Partly Cloudy
9:52 PM 78.1 °F - 48.9 °F 36% 29.90 in 10.0 mi ESE 10.4 mph 20.7 mph N/A   Mostly Cloudy
10:52 PM 75.9 °F - 53.1 °F 45% 29.91 in 10.0 mi ESE 10.4 mph - N/A   Clear
11:52 PM 73.0 °F - 55.9 °F 55% 29.94 in 10.0 mi SE 11.5 mph - N/A   Clear